| time (UTC) | temp F | wind direction | speed knots | gust knots | rain 1hr in | rain 24hr in | rain mn in | humidity % | barometer mb |
| 20260504081555 | 51 | 263 | 0.0 | 0.9 | 0.00 | 0.00 | 0.00 | 83 | 1006.8 |
| 20260504060105 | 46 | 0 | 0.0 | 0.0 | 0.00 | 0.00 | 0.00 | 88 | 1007.7 |
| 20260504050123 | 51 | 0 | 0.0 | 0.0 | 0.00 | 0.00 | 0.00 | 81 | 1008.3 |
| 20260504044555 | 52 | 0 | 0.0 | 0.0 | 0.00 | 0.00 | 0.00 | 78 | 1008.4 |
| 20260504043101 | 54 | 0 | 0.0 | 0.9 | 0.00 | 0.00 | 0.00 | 75 | 1008.5 |
| 20260504041601 | 55 | 0 | 0.0 | 0.9 | 0.00 | 0.00 | 0.00 | 73 | 1008.6 |
| 20260504040113 | 56 | 0 | 0.0 | 0.9 | 0.00 | 0.00 | 0.00 | 71 | 1008.6 |
| 20260504034614 | 56 | 0 | 0.0 | 0.9 | 0.00 | 0.00 | 0.00 | 70 | 1008.6 |
| 20260504033105 | 57 | 0 | 0.0 | 0.0 | 0.00 | 0.00 | 0.00 | 69 | 1008.9 |
| 20260504031606 | 59 | 0 | 0.0 | 1.7 | 0.00 | 0.00 | 0.00 | 66 | 1008.8 |
| 20260504030114 | 60 | 262 | 0.9 | 2.6 | 0.00 | 0.00 | 0.00 | 64 | 1008.8 |
| 20260504024555 | 60 | 237 | 0.9 | 3.5 | 0.00 | 0.00 | 0.00 | 63 | 1008.9 |
| 20260504023055 | 61 | 256 | 0.9 | 3.5 | 0.00 | 0.00 | 0.00 | 61 | 1008.8 |
| 20260504021606 | 61 | 257 | 1.7 | 4.3 | 0.00 | 0.00 | 0.00 | 60 | 1008.7 |
| 20260504020057 | 62 | 245 | 1.7 | 5.2 | 0.00 | 0.00 | 0.00 | 59 | 1008.6 |
| 20260504014557 | 63 | 240 | 1.7 | 3.5 | 0.00 | 0.00 | 0.00 | 58 | 1008.7 |
| 20260504013055 | 63 | 250 | 1.7 | 5.2 | 0.00 | 0.00 | 0.00 | 56 | 1008.6 |
| 20260504011554 | 64 | 238 | 2.6 | 5.2 | 0.00 | 0.00 | 0.00 | 55 | 1008.4 |
| 20260504010056 | 65 | 250 | 1.7 | 6.1 | 0.00 | 0.00 | 0.00 | 54 | 1008.3 |
| 20260504004555 | 65 | 285 | 2.6 | 7.0 | 0.00 | 0.00 | 0.00 | 53 | 1008.3 |
| 20260504003053 | 66 | 252 | 2.6 | 6.1 | 0.00 | 0.00 | 0.00 | 52 | 1008.3 |
| 20260504001554 | 66 | 230 | 2.6 | 5.2 | 0.00 | 0.00 | 0.00 | 52 | 1008.4 |
| 20260504000135 | 67 | 243 | 1.7 | 7.8 | 0.00 | 0.00 | 0.00 | 51 | 1008.3 |
| 20260503234556 | 67 | 252 | 3.5 | 7.0 | 0.00 | 0.00 | 0.00 | 50 | 1008.4 |
| 20260503233055 | 67 | 246 | 3.5 | 8.7 | 0.00 | 0.00 | 0.00 | 49 | 1008.5 |
| 20260503231556 | 67 | 248 | 6.1 | 11.3 | 0.00 | 0.00 | 0.00 | 48 | 1008.4 |
| 20260503230059 | 68 | 260 | 4.3 | 8.7 | 0.00 | 0.00 | 0.00 | 47 | 1008.7 |
| 20260503224554 | 68 | 276 | 3.5 | 12.2 | 0.00 | 0.00 | 0.00 | 47 | 1008.6 |
| 20260503223056 | 69 | 245 | 6.1 | 13.0 | 0.00 | 0.00 | 0.00 | 45 | 1008.7 |
| 20260503221552 | 68 | 219 | 6.1 | 18.2 | 0.00 | 0.00 | 0.00 | 45 | 1008.8 |
| 20260503220059 | 68 | 250 | 5.2 | 12.2 | 0.00 | 0.00 | 0.00 | 45 | 1009.0 |
| 20260503214555 | 67 | 276 | 5.2 | 12.2 | 0.00 | 0.00 | 0.00 | 45 | 1009.1 |
| 20260503213055 | 67 | 252 | 7.0 | 16.5 | 0.00 | 0.00 | 0.00 | 43 | 1009.1 |
| 20260503211556 | 67 | 236 | 7.8 | 14.8 | 0.00 | 0.00 | 0.00 | 43 | 1009.1 |
| 20260503210054 | 66 | 250 | 8.7 | 19.1 | 0.00 | 0.00 | 0.00 | 43 | 1009.2 |
| 20260503204556 | 67 | 90 | 7.8 | 18.2 | 0.00 | 0.00 | 0.00 | 43 | 1009.3 |
| 20260503203101 | 67 | 232 | 7.8 | 15.6 | 0.00 | 0.00 | 0.00 | 41 | 1009.4 |
| 20260503201600 | 66 | 249 | 6.1 | 20.9 | 0.00 | 0.00 | 0.00 | 43 | 1010.0 |
| 20260503200057 | 67 | 300 | 6.1 | 16.5 | 0.00 | 0.00 | 0.00 | 41 | 1009.9 |
| 20260503194558 | 68 | 260 | 7.8 | 20.9 | 0.00 | 0.00 | 0.00 | 39 | 1010.2 |
| 20260503193059 | 68 | 250 | 6.1 | 16.5 | 0.00 | 0.00 | 0.00 | 39 | 1010.2 |
| 20260503191555 | 67 | 246 | 6.1 | 21.7 | 0.00 | 0.00 | 0.00 | 40 | 1010.3 |
| 20260503190053 | 66 | 250 | 9.6 | 17.4 | 0.00 | 0.00 | 0.00 | 40 | 1010.2 |
| 20260503184611 | 66 | 180 | 6.1 | 17.4 | 0.00 | 0.00 | 0.00 | 41 | 1010.4 |
| 20260503183100 | 65 | 214 | 4.3 | 16.5 | 0.00 | 0.00 | 0.00 | 42 | 1010.7 |
| 20260503181556 | 65 | 209 | 5.2 | 14.8 | 0.00 | 0.00 | 0.00 | 43 | 1010.8 |
| 20260503180058 | 64 | 205 | 3.5 | 16.5 | 0.00 | 0.00 | 0.00 | 44 | 1011.2 |
| 20260503173058 | 62 | 253 | 3.5 | 9.6 | 0.00 | 0.00 | 0.00 | 48 | 1012.4 |
| 20260503171611 | 62 | 224 | 3.5 | 11.3 | 0.00 | 0.00 | 0.00 | 47 | 1012.8 |
| 20260503170104 | 61 | 179 | 3.5 | 10.4 | 0.00 | 0.00 | 0.00 | 50 | 1013.7 |
| 20260503090117 | 45 | 206 | 0.9 | 5.2 | 0.00 | 0.00 | 0.00 | 68 | 1017.2 |